Regional Weather Roundup
Issued by NWS Jackson, KY

Home | Current Version | Previous Version | Text Only | Print | Product List | Glossary Off
Versions: 1 2 3 4 5 6 7 8 9 10 11 12 13 14 15 16 17 18 19 20 21 22 23 24 25 26 27 28 29 30 31 32 33 34 35 36 37 38 39 40 41 42 43 44 45 46 47

000
ASUS43 KJKL 031510
RWRJKL

EAST KENTUCKY HOURLY WEATHER ROUNDUP
NATIONAL WEATHER SERVICE JACKSON KY
1100 AM EDT MON AUG 03 2015

NOTE: "FAIR" INDICATES FEW OR NO CLOUDS BELOW 12,000 FEET WITH
NO SIGNIFICANT WEATHER AND/OR OBSTRUCTIONS TO VISIBILITY.

* THESE REPORTS ARE NOT UNDER NWS QUALITY CONTROL AND MAY NOT
  REPORT WEATHER SUCH AS PRECIPITATION AND FOG.

KYZ079-080-083-085-087-088-110-112-115-119-120-031600
...EASTERN KENTUCKY...

CITY           SKY/WX    TMP DP  RH WIND       PRES   REMARKS
JACKSON        SUNNY     75  61  61 VRB3      29.98F
LONDON         SUNNY     78  61  55 E7        29.99F
SOMERSET*      MOSUNNY   77  63  61 E3        29.99S
MONTICELLO*    MOSUNNY   80  69  69 N6        30.01R
MIDDLESBORO*   SUNNY     74  64  72 CALM      30.01R
BLACK MTN*       N/A     68  59  73 N3          N/A
PIKEVILLE APT* SUNNY     75  61  60 SE8       29.99F
BIG SANDY*     MOSUNNY   76  61  60 SE6       29.97F
MOREHEAD APT*  MOSUNNY   75  61  60 S7        29.95R
$$

KYZ035-036-041-042-044-050-067-078-099-031600
...CENTRAL KENTUCKY...

CITY           SKY/WX    TMP DP  RH WIND       PRES   REMARKS
MT STERLING*   SUNNY     77  61  57 SW8       29.96S
FLEMING/MASON* SUNNY     73  64  73 S10       29.93R
DANVILLE*      MOSUNNY   73  63  68 S8        29.98F
RICHMOND*      MOSUNNY   75  61  60 SE9       29.96S
LEXINGTON      SUNNY     75  63  66 S14       29.95S
FRANKFORT      SUNNY     75  63  66 SE13      29.93S
$$

KYZ091>093-OHZ055-061-077-WVZ005-015-034-035-042-031600
...SOUTHERN OHIO/WEST VIRGINIA...

CITY           SKY/WX    TMP DP  RH WIND       PRES   REMARKS
COLUMBUS       MOSUNNY   77  62  59 SW9       29.83S
DAYTON         CLOUDY    69  64  84 SW15      29.88R
WILMINGTON     SUNNY     75  63  66 SW10      29.88S
HUNTINGTON     PTSUNNY   74  62  66 S8        29.90F
CHARLESTON     CLOUDY    75  62  64 S16G22    29.89F
PINEVILLE*     MOSUNNY   79  62  54 MISG      30.06F
BECKLEY        MOSUNNY   74  57  55 N7        30.04F
BLUEFIELD      MOSUNNY   76  57  51 N7        30.09R
$$

VAZ002-007-008-TNZ017-027-036-066-071-031600
...SOUTHWEST VIRGINIA/EAST TENNESSEE...

CITY           SKY/WX    TMP DP  RH WIND       PRES   REMARKS
WISE*          MOSUNNY   75  57  53 E5        30.08S
ABINGDON*      SUNNY     80  57  44 N7        30.05S
BRISTOL        MOSUNNY   79  61  53 CALM      30.02S
KNOXVILLE      MOSUNNY   80  66  62 CALM      29.98S
OAK RIDGE      SUNNY     81  65  58 CALM      29.99S
CROSSVILLE     SUNNY     81  61  50 NW6       30.03R
NASHVILLE      MOSUNNY   85  51  31 W3        29.97S
$$

...KEY TO REMARKS...
VSB - VISIBILITY IN MILES
WCI - WIND CHILL INDEX
HX  - HEAT INDEX

$$


USA.gov is the U.S. government's official web portal to all federal, state and local government web resources and services.